Location: G�migny
(47.9646°N, 1.6950°E)
Time: 06:08:51
(UTC+00:00)

ADEOS Rocket - Pass Details

Date: 23 October 2019
Orbit: 859 x 1306 km, 98.7° (Epoch: 16 November)

Event Time Altitude Azimuth Distance (km) Brightness Sun altitude
Rises 18:03:10 0° 23° (NNE) 4,274 6.1 -12.8°
Reaches altitude 10° 18:06:56 10° 40° (NE) 3,257 5.3 -13.4°
Maximum altitude 18:12:05 20° 84° (E) 2,516 4.5 -14.3°
Enters shadow 18:13:04 19° 94° (E) 2,525 4.5 -14.4°
Exits shadow 18:19:28 - 141° (SE) 3,690 5.7 -15.5°
Sets 18:20:20 0° 145° (SE) 3,937 5.8 -15.6°
